Powrót do katalogu

ARIANE 44LP DEB

AktywnyHEO
NORAD 28040·DEBRIS·🇫🇷 France

Wystrzelony Mar 2, 1991 z Guiana Space Centre

Loading…

Następne Przeloty (najbliższe 24 godziny)

TLE

ŚwieżeSource: Space-Track

Epoka: Sep 14, 2026, 09:21 UTC

1 28040U 91015P   26257.39027181 -.00000040  00000-0  00000-0 0  9998
2 28040   7.5595 228.3858 6439751 204.0933 354.6065  2.76511426133009

Śledź ARIANE 44LP DEB w czasie rzeczywistym z AllMySat

Download on the App Store